Location: Newark
(52.3500°N, 175.9667°E)
Time: 21:48:44
(UTC+00:00)

Transit 4A - Pass Details

Date: 23 April 2021
Orbit: 871 x 974 km, 66.8° (Epoch: 16 May)

Event Time Altitude Azimuth Distance (km) Brightness Sun altitude
Rises 11:38:59 0° 218° (SW) 3,618 - -24.5°
Reaches altitude 10° 11:41:32 10° 219° (SW) 2,662 - -24.6°
Exits shadow 11:45:43 45° 222° (SW) 1,250 8.2 -24.7°
Maximum altitude 11:47:45 87° 307° (NW) 936 7.8 -24.7°
Drops below altitude 10° 11:53:51 10° 39° (NE) 2,604 10.8 -24.8°
Sets 11:56:20 0° 40° (NE) 3,533 11.6 -24.8°
